Location: Unspecified
(0.0000°N, 0.0000°E)
Time: 14:51:10
(UTC+02:00)

HO-68 - Visible Passes

Search period start: 26 September 2017 00:00
Search period end: 06 October 2017 00:00
Orbit: 1193 x 1204 km, 100.1° (Epoch: 26 September)

Date Brightness Start Highest point End Pass type
(mag) Time Alt. Az. Time Alt. Az. Time Alt. Az.
26 Sep ? 21:14:41 10° S 21:21:43 63° WSW 21:28:45 10° NNW visible
27 Sep ? 07:25:10 10° E 07:25:55 10° ESE 07:26:40 10° ESE visible
27 Sep ? 20:57:41 10° SSE 21:04:51 87° WSW 21:12:00 10° NNW visible
28 Sep ? 20:40:53 10° SSE 20:47:59 68° ENE 20:55:03 10° N visible
28 Sep ? 22:33:01 10° SW 22:35:18 12° WSW 22:37:36 10° W visible
29 Sep ? 20:24:18 10° SSE 20:31:07 47° ENE 20:37:53 10° N visible
29 Sep ? 22:13:55 10° SW 22:18:29 18° WSW 22:23:04 10° WNW visible
30 Sep ? 20:08:00 10° SE 20:14:16 33° ENE 20:20:29 10° NNE visible
30 Sep ? 21:55:54 10° SSW 22:01:38 27° WSW 22:07:24 10° NW visible
01 Oct ? 21:38:19 10° S 21:44:48 38° WSW 21:51:17 10° NW visible
02 Oct ? 21:21:00 10° S 21:27:56 54° WSW 21:34:51 10° NNW visible
03 Oct ? 07:29:17 10° E 07:32:07 13° ESE 07:34:56 10° SE visible
03 Oct ? 21:03:56 10° S 21:11:03 77° WSW 21:18:11 10° NNW visible
04 Oct ? 20:47:03 10° SSE 20:54:12 78° ENE 21:01:19 10° N visible
05 Oct ? 20:30:23 10° SSE 20:37:20 55° ENE 20:44:15 10° N visible
05 Oct ? 22:20:50 10° SW 22:24:41 15° WSW 22:28:32 10° WNW visible
